Flag for Germany Weather past 2 weeks in Eckernförde, Schleswig-Holstein, Germany

Now
41 °F

Light rain. Overcast.


Feels Like: 35 °F
Forecast: 37 / 46 °F
Wind: 9 mph from West

Location: Schleswig

Current Time: Mar 30, 2015 at 4:32:22 AM

Latest Report: Mar 30, 2015 at 4:00 AM


Visibility: 4 mi

Pressure: 29.06 "Hg

Humidity: 95%

Dew point: 40 °F

Location of EckernfördeLocation

Historic Weather in Eckernförde — Graph

°F

Eckernförde temperature yesterday

Maximum temperature yesterday: 49 °F (at 3:00 AM)
Minimum temperature yesterday: 42 °F (at 10:00 PM)
Average temperature yesterday: 45 °F

Past Weeks' High & Low Weather Summary

 TemperatureHumidityPressure
High55 °F (Mar 18, 1:00 PM)100% (Mar 20, 6:00 AM)30.55 "Hg (Mar 20, 6:00 AM)
Low28 °F (Mar 22, 6:00 AM)31% (Mar 19, 1:00 PM)28.94 "Hg (Mar 29, 10:00 PM)
Average42 °F82%30.06 "Hg
* Reported Mar 15 2:00 AM — Mar 30 3:00 AM, Eckernförde, Weather by CustomWeather, © 2015

Note: Actual official high and low records may vary slightly from our data, if they occured in-between our weather recording intervals... More about our weather records

Advertising

Eckernförde weather history for previous 24 hours

 ConditionsComfort  
Time TempWeatherWind HumidityBarometerVisibility
3:00 AM
Mon, Mar 30
41 °FLight rain. Low clouds.9 mph96%29.06 "Hg4 mi
2:00 AM40 °FLow clouds.6 mph98%29.06 "Hg11 mi
1:00 AM40 °FLight rain. Low clouds.6 mph98%29.03 "Hg6 mi
12:00 AM39 °FLight rain. Low clouds.8 mph97%29.00 "Hg4 mi
10:00 PM
Sun, Mar 29
42 °FRain. Low clouds.5 mph98%28.94 "Hg2 mi
9:00 PM42 °FRain. Low clouds.3 mph98%29.00 "Hg2 mi
8:00 PM43 °FLight rain. Low clouds.2 mph96%29.06 "Hg4 mi
7:00 PM43 °FLight rain. Overcast.2 mph93%29.09 "Hg9 mi
6:00 PM44 °FLight rain. Overcast.3 mph90%29.15 "Hg12 mi
4:00 PM47 °FOvercast.7 mph84%29.23 "Hg16 mi
3:00 PM47 °FOvercast.8 mph82%29.29 "Hg12 mi
2:00 PM47 °FOvercast.8 mph86%29.32 "Hg9 mi
1:00 PM46 °FOvercast.9 mph90%29.35 "Hg7 mi
12:00 PM46 °FLow clouds.7 mph95%29.35 "Hg6 mi
11:00 AM45 °FLight rain. Low clouds.7 mph98%29.35 "Hg2 mi
10:00 AM45 °FLight rain. Low clouds.8 mph96%29.38 "Hg6 mi
9:00 AM45 °FLight rain. Low clouds.7 mph98%29.41 "Hg3 mi
8:00 AM45 °FLight rain. Low clouds.7 mph98%29.41 "Hg4 mi
7:00 AM45 °FLight rain. Low clouds.7 mph98%29.41 "Hg5 mi
6:00 AM46 °FRain. Low clouds.8 mph98%29.41 "Hg3 mi
5:00 AM48 °FLight rain. Low clouds.7 mph97%29.41 "Hg2 mi
4:00 AM48 °FRain. Low clouds.8 mph98%29.44 "Hg2 mi
Weather by CustomWeather, © 2015

See weather overviewHow to use our weather pages